[Date Prev][Date Next][Thread Prev][Thread Next] - [Date Index][Thread Index][Author Index]
2 Line ISS Keps 9-2
- Subject: [sarex] 2 Line ISS Keps 9-2
- From: "Dave Larsen PhD" <doc@xxxxxxxxxxx>
- Date: Tue, 2 Sep 2003 07:06:03 -0700
ISS
1 25544U 98067A 03245.45625631 .00016446 00000-0 19076-3 0 4370
2 25544 51.6337 351.1596 0006442 195.8403 253.7317 15.61920435273076
----
Via the sarex mailing list at AMSAT.ORG courtesy of AMSAT-NA.
To unsubscribe, send "unsubscribe sarex" to Majordomo@amsat.org
AMSAT Home